Time,TemperatureF,DewpointF,PressureIn,WindDirection,WindDirectionDegrees,WindSpeedMPH,WindSpeedGustMPH,Humidity,HourlyPrecipIn,Conditions,Clouds,dailyrainin,SoftwareType,DateUTC
2013-07-08 00:01:00,76.5,69.8,30.04,WNW,295,1.0,8.0,80,0.00,,,0.00,meteohub,2013-07-08 04:01:00,
2013-07-08 00:06:00,76.5,69.8,30.04,WNW,290,4.0,6.0,80,0.00,,,0.00,meteohub,2013-07-08 04:06:00,
2013-07-08 00:11:00,76.5,69.8,30.05,WNW,298,1.0,5.0,80,0.00,,,0.00,meteohub,2013-07-08 04:11:00,
2013-07-08 00:16:00,76.5,69.8,30.05,WNW,296,3.0,5.0,80,0.00,,,0.00,meteohub,2013-07-08 04:16:00,
2013-07-08 00:21:00,76.3,69.6,30.04,WNW,293,0.0,5.0,80,0.00,,,0.00,meteohub,2013-07-08 04:21:00,
2013-07-08 00:26:00,76.3,69.6,30.04,NW,307,1.0,4.0,80,0.00,,,0.00,meteohub,2013-07-08 04:26:00,
2013-07-08 00:31:00,76.1,69.8,30.04,SSW,200,0.0,4.0,81,0.00,,,0.00,meteohub,2013-07-08 04:31:00,
2013-07-08 00:36:00,75.9,69.6,30.04,SSW,195,0.0,3.0,81,0.00,,,0.00,meteohub,2013-07-08 04:36:00,
2013-07-08 00:41:00,75.9,69.6,30.04,NW,304,0.0,3.0,81,0.00,,,0.00,meteohub,2013-07-08 04:41:00,
2013-07-08 00:47:00,75.9,69.6,30.04,WNW,291,0.0,4.0,81,0.00,,,0.00,meteohub,2013-07-08 04:47:00,
2013-07-08 00:52:00,75.7,69.4,30.04,WNW,302,2.0,5.0,81,0.00,,,0.00,meteohub,2013-07-08 04:52:00,
2013-07-08 00:57:00,75.7,69.4,30.04,WNW,283,2.0,7.0,81,0.00,,,0.00,meteohub,2013-07-08 04:57:00,
2013-07-08 01:02:00,75.6,69.6,30.04,West,281,1.0,7.0,82,0.00,,,0.00,meteohub,2013-07-08 05:02:00,
2013-07-08 01:07:00,75.6,69.6,30.04,WNW,296,4.0,7.0,82,0.00,,,0.00,meteohub,2013-07-08 05:07:00,
2013-07-08 01:12:00,75.4,69.4,30.04,WNW,288,1.0,7.0,82,0.00,,,0.00,meteohub,2013-07-08 05:12:00,
2013-07-08 01:17:00,75.0,69.4,30.05,NW,320,1.0,8.0,83,0.00,,,0.00,meteohub,2013-07-08 05:17:00,
2013-07-08 01:22:00,75.0,69.4,30.04,West,277,3.0,8.0,83,0.00,,,0.00,meteohub,2013-07-08 05:22:00,
2013-07-08 01:27:00,74.8,69.6,30.05,WNW,302,2.0,8.0,84,0.00,,,0.00,meteohub,2013-07-08 05:27:00,
2013-07-08 01:32:00,74.7,69.4,30.05,NW,308,1.0,5.0,84,0.00,,,0.00,meteohub,2013-07-08 05:32:00,
2013-07-08 01:37:00,74.7,69.4,30.05,NW,304,2.0,7.0,84,0.00,,,0.00,meteohub,2013-07-08 05:37:00,
2013-07-08 01:42:00,74.5,69.6,30.05,WNW,294,4.0,7.0,85,0.00,,,0.00,meteohub,2013-07-08 05:42:00,
2013-07-08 01:47:00,74.5,69.6,30.05,West,274,2.0,7.0,85,0.00,,,0.00,meteohub,2013-07-08 05:47:00,
2013-07-08 01:52:00,74.3,69.4,30.04,WNW,284,1.0,8.0,85,0.00,,,0.00,meteohub,2013-07-08 05:52:00,
2013-07-08 01:57:00,74.1,69.3,30.04,NW,309,2.0,8.0,85,0.00,,,0.00,meteohub,2013-07-08 05:57:00,
2013-07-08 02:02:00,74.1,69.3,30.04,WNW,283,1.0,8.0,85,0.00,,,0.00,meteohub,2013-07-08 06:02:00,
2013-07-08 02:07:00,74.1,69.3,30.04,WNW,283,2.0,8.0,85,0.00,,,0.00,meteohub,2013-07-08 06:07:00,
2013-07-08 02:12:00,73.9,69.4,30.04,WNW,300,2.0,8.0,86,0.00,,,0.00,meteohub,2013-07-08 06:12:00,
2013-07-08 02:17:00,73.9,69.4,30.04,WNW,291,1.0,6.0,86,0.00,,,0.00,meteohub,2013-07-08 06:17:00,
2013-07-08 02:22:00,73.8,69.3,30.04,WNW,291,5.0,5.0,86,0.00,,,0.00,meteohub,2013-07-08 06:22:00,
2013-07-08 02:27:00,73.8,69.3,30.04,WNW,284,4.0,6.0,86,0.00,,,0.00,meteohub,2013-07-08 06:27:00,
2013-07-08 02:32:00,73.6,69.1,30.04,WNW,290,0.0,6.0,86,0.00,,,0.00,meteohub,2013-07-08 06:32:00,
2013-07-08 02:37:00,73.6,69.1,30.04,NW,305,1.0,6.0,86,0.00,,,0.00,meteohub,2013-07-08 06:37:00,
2013-07-08 02:42:00,73.6,69.1,30.04,NW,308,2.0,8.0,86,0.00,,,0.00,meteohub,2013-07-08 06:42:00,
2013-07-08 02:47:00,73.4,68.9,30.04,NW,305,1.0,8.0,86,0.00,,,0.00,meteohub,2013-07-08 06:47:00,
2013-07-08 02:52:00,73.2,68.7,30.04,NW,320,1.0,8.0,86,0.00,,,0.00,meteohub,2013-07-08 06:52:00,
2013-07-08 02:57:00,73.2,68.7,30.05,NW,309,2.0,7.0,86,0.00,,,0.00,meteohub,2013-07-08 06:57:00,
2013-07-08 03:02:00,73.2,68.7,30.05,NW,312,0.0,7.0,86,0.00,,,0.00,meteohub,2013-07-08 07:02:00,
2013-07-08 03:07:00,73.2,68.7,30.04,West,277,1.0,7.0,86,0.00,,,0.00,meteohub,2013-07-08 07:07:00,
2013-07-08 03:12:00,73.0,68.9,30.04,WNW,298,2.0,5.0,87,0.00,,,0.00,meteohub,2013-07-08 07:12:00,
2013-07-08 03:17:00,73.0,68.9,30.04,WNW,283,1.0,5.0,87,0.00,,,0.00,meteohub,2013-07-08 07:17:00,
2013-07-08 03:22:00,72.9,68.7,30.04,WNW,291,3.0,5.0,87,0.00,,,0.00,meteohub,2013-07-08 07:22:00,
2013-07-08 03:27:00,72.9,68.7,30.04,West,281,2.0,5.0,87,0.00,,,0.00,meteohub,2013-07-08 07:27:00,
2013-07-08 03:32:00,72.9,69.1,30.04,West,280,1.0,6.0,88,0.00,,,0.00,meteohub,2013-07-08 07:32:00,
2013-07-08 03:37:00,72.7,68.9,30.04,NW,304,1.0,7.0,88,0.00,,,0.00,meteohub,2013-07-08 07:37:00,
2013-07-08 03:42:00,72.7,68.9,30.04,West,280,5.0,7.0,88,0.00,,,0.00,meteohub,2013-07-08 07:42:00,
2013-07-08 03:47:00,72.3,68.9,30.04,NW,309,2.0,8.0,89,0.00,,,0.00,meteohub,2013-07-08 07:47:00,
2013-07-08 03:52:00,72.3,68.9,30.04,WNW,302,1.0,8.0,89,0.00,,,0.00,meteohub,2013-07-08 07:52:00,
2013-07-08 03:57:00,72.3,68.9,30.03,NW,308,2.0,8.0,89,0.00,,,0.00,meteohub,2013-07-08 07:57:00,
2013-07-08 04:02:00,72.1,68.7,30.04,West,278,2.0,6.0,89,0.00,,,0.00,meteohub,2013-07-08 08:02:00,
2013-07-08 04:07:00,72.1,68.7,30.04,NW,312,2.0,6.0,89,0.00,,,0.00,meteohub,2013-07-08 08:07:00,
2013-07-08 04:12:00,72.1,68.7,30.04,WNW,296,4.0,6.0,89,0.00,,,0.00,meteohub,2013-07-08 08:12:00,
2013-07-08 04:17:00,72.1,68.7,30.04,WNW,302,2.0,7.0,89,0.00,,,0.00,meteohub,2013-07-08 08:17:00,
2013-07-08 04:22:00,72.1,68.7,30.04,WNW,297,1.0,7.0,89,0.00,,,0.00,meteohub,2013-07-08 08:22:00,
2013-07-08 04:27:00,72.1,68.7,30.05,WNW,291,4.0,7.0,89,0.00,,,0.00,meteohub,2013-07-08 08:27:00,
2013-07-08 04:32:00,72.0,68.5,30.05,WNW,294,0.0,6.0,89,0.00,,,0.00,meteohub,2013-07-08 08:32:00,
2013-07-08 04:37:00,72.0,68.5,30.05,WNW,293,1.0,6.0,89,0.00,,,0.00,meteohub,2013-07-08 08:37:00,
2013-07-08 04:42:00,72.0,68.5,30.05,West,279,4.0,6.0,89,0.00,,,0.00,meteohub,2013-07-08 08:42:00,
2013-07-08 04:47:00,71.8,68.7,30.05,WNW,292,2.0,8.0,90,0.00,,,0.00,meteohub,2013-07-08 08:47:00,
2013-07-08 04:52:00,71.8,68.7,30.05,WNW,283,0.0,8.0,90,0.00,,,0.00,meteohub,2013-07-08 08:52:00,
2013-07-08 04:57:00,71.8,68.7,30.05,WNW,283,0.0,8.0,90,0.00,,,0.00,meteohub,2013-07-08 08:57:00,
2013-07-08 05:02:00,71.8,68.7,30.05,NW,304,0.0,6.0,90,0.00,,,0.00,meteohub,2013-07-08 09:02:00,
2013-07-08 05:07:00,71.6,68.5,30.05,WNW,285,3.0,6.0,90,0.00,,,0.00,meteohub,2013-07-08 09:07:00,
2013-07-08 05:12:00,71.6,68.5,30.05,WNW,288,1.0,6.0,90,0.00,,,0.00,meteohub,2013-07-08 09:12:00,
2013-07-08 05:17:00,71.4,68.4,30.05,WNW,283,4.0,6.0,90,0.00,,,0.00,meteohub,2013-07-08 09:17:00,
2013-07-08 05:22:00,71.4,68.4,30.06,West,264,4.0,7.0,90,0.00,,,0.00,meteohub,2013-07-08 09:22:00,
2013-07-08 05:27:00,71.4,68.4,30.06,WNW,291,2.0,7.0,90,0.00,,,0.00,meteohub,2013-07-08 09:27:00,
2013-07-08 05:32:00,71.4,68.4,30.05,WNW,284,1.0,7.0,90,0.00,,,0.00,meteohub,2013-07-08 09:32:00,
2013-07-08 05:37:00,71.4,68.4,30.06,WSW,245,7.0,7.0,90,0.00,,,0.00,meteohub,2013-07-08 09:37:00,
2013-07-08 05:42:00,71.4,68.4,30.06,NW,309,1.0,7.0,90,0.00,,,0.00,meteohub,2013-07-08 09:42:00,
2013-07-08 05:47:00,71.6,68.2,30.06,WNW,291,4.0,7.0,89,0.00,,,0.00,meteohub,2013-07-08 09:47:00,
2013-07-08 05:52:00,71.6,68.2,30.06,WNW,295,4.0,7.0,89,0.00,,,0.00,meteohub,2013-07-08 09:52:00,
2013-07-08 05:57:00,71.8,68.4,30.06,WNW,287,1.0,7.0,89,0.00,,,0.00,meteohub,2013-07-08 09:57:00,
2013-07-08 06:02:00,71.8,68.4,30.07,NW,312,1.0,7.0,89,0.00,,,0.00,meteohub,2013-07-08 10:02:00,
2013-07-08 06:07:00,71.8,68.4,30.07,WNW,295,4.0,7.0,89,0.00,,,0.00,meteohub,2013-07-08 10:07:00,
2013-07-08 06:12:00,71.8,68.4,30.07,WNW,291,1.0,9.0,89,0.00,,,0.00,meteohub,2013-07-08 10:12:00,
2013-07-08 06:17:00,71.8,68.4,30.08,WNW,292,3.0,9.0,89,0.00,,,0.00,meteohub,2013-07-08 10:17:00,
2013-07-08 06:22:00,71.8,68.4,30.08,NW,305,1.0,9.0,89,0.00,,,0.00,meteohub,2013-07-08 10:22:00,
2013-07-08 06:27:00,71.8,68.4,30.07,WNW,292,2.0,9.0,89,0.00,,,0.00,meteohub,2013-07-08 10:27:00,
2013-07-08 06:32:00,72.0,68.5,30.07,WNW,295,4.0,9.0,89,0.00,,,0.00,meteohub,2013-07-08 10:32:00,
2013-07-08 06:37:00,72.0,68.5,30.07,WNW,293,3.0,6.0,89,0.00,,,0.00,meteohub,2013-07-08 10:37:00,
2013-07-08 06:42:00,72.0,68.5,30.08,WNW,296,2.0,5.0,89,0.00,,,0.00,meteohub,2013-07-08 10:42:00,
2013-07-08 06:47:00,72.0,68.5,30.08,NW,305,1.0,6.0,89,0.00,,,0.00,meteohub,2013-07-08 10:47:00,
2013-07-08 06:52:00,72.1,68.7,30.07,WNW,292,3.0,6.0,89,0.00,,,0.00,meteohub,2013-07-08 10:52:00,
2013-07-08 06:57:00,72.1,68.7,30.08,WNW,287,3.0,9.0,89,0.00,,,0.00,meteohub,2013-07-08 10:57:00,
2013-07-08 07:02:00,72.1,68.7,30.07,NW,307,2.0,9.0,89,0.00,,,0.00,meteohub,2013-07-08 11:02:00,
2013-07-08 07:07:00,72.3,68.5,30.08,WNW,288,4.0,9.0,88,0.00,,,0.00,meteohub,2013-07-08 11:07:00,
2013-07-08 07:12:00,72.7,68.9,30.08,NW,304,3.0,9.0,88,0.00,,,0.00,meteohub,2013-07-08 11:12:00,
2013-07-08 07:17:00,72.9,69.1,30.08,WNW,287,4.0,8.0,88,0.00,,,0.00,meteohub,2013-07-08 11:17:00,
2013-07-08 07:22:00,72.9,69.1,30.08,NW,305,2.0,9.0,88,0.00,,,0.00,meteohub,2013-07-08 11:22:00,
2013-07-08 07:27:00,73.0,69.3,30.08,WNW,285,2.0,9.0,88,0.00,,,0.00,meteohub,2013-07-08 11:27:00,
2013-07-08 07:32:00,73.2,68.7,30.08,NW,311,2.0,9.0,86,0.00,,,0.00,meteohub,2013-07-08 11:32:00,
2013-07-08 07:37:00,73.2,69.1,30.08,West,273,3.0,8.0,87,0.00,,,0.00,meteohub,2013-07-08 11:37:00,
2013-07-08 07:42:00,73.4,68.9,30.08,West,277,3.0,8.0,86,0.00,,,0.00,meteohub,2013-07-08 11:42:00,
2013-07-08 07:47:00,73.6,69.1,30.07,WNW,293,2.0,9.0,86,0.00,,,0.00,meteohub,2013-07-08 11:47:00,
2013-07-08 07:52:00,73.8,69.3,30.07,WNW,292,1.0,9.0,86,0.00,,,0.00,meteohub,2013-07-08 11:52:00,
2013-07-08 07:57:00,73.9,69.4,30.07,NW,307,2.0,9.0,86,0.00,,,0.00,meteohub,2013-07-08 11:57:00,
2013-07-08 08:02:00,74.1,69.3,30.07,WNW,300,3.0,7.0,85,0.00,,,0.00,meteohub,2013-07-08 12:02:00,
2013-07-08 08:07:00,74.1,69.3,30.07,WNW,287,4.0,7.0,85,0.00,,,0.00,meteohub,2013-07-08 12:07:00,
2013-07-08 08:12:00,74.5,69.6,30.08,WNW,296,4.0,7.0,85,0.00,,,0.00,meteohub,2013-07-08 12:12:00,
2013-07-08 08:17:00,74.5,69.6,30.08,WNW,285,4.0,7.0,85,0.00,,,0.00,meteohub,2013-07-08 12:17:00,
2013-07-08 08:22:00,74.8,70.0,30.08,WNW,283,7.0,8.0,85,0.00,,,0.00,meteohub,2013-07-08 12:22:00,
2013-07-08 08:27:00,75.0,69.8,30.08,West,276,6.0,9.0,84,0.00,,,0.00,meteohub,2013-07-08 12:27:00,
2013-07-08 08:32:00,75.4,70.2,30.09,WNW,300,3.0,9.0,84,0.00,,,0.00,meteohub,2013-07-08 12:32:00,
2013-07-08 08:37:00,75.6,70.3,30.09,WNW,295,7.0,9.0,84,0.00,,,0.00,meteohub,2013-07-08 12:37:00,
2013-07-08 08:42:00,75.4,69.8,30.09,WNW,297,2.0,9.0,83,0.00,,,0.00,meteohub,2013-07-08 12:42:00,
2013-07-08 08:47:00,75.7,70.2,30.09,WNW,291,5.0,8.0,83,0.00,,,0.00,meteohub,2013-07-08 12:47:00,
2013-07-08 08:52:00,75.7,69.8,30.09,SSW,210,0.0,8.0,82,0.00,,,0.00,meteohub,2013-07-08 12:52:00,
2013-07-08 08:57:00,75.9,70.3,30.09,WNW,290,3.0,9.0,83,0.00,,,0.00,meteohub,2013-07-08 12:57:00,
2013-07-08 09:02:00,76.1,70.5,30.08,NW,307,2.0,9.0,83,0.00,,,0.00,meteohub,2013-07-08 13:02:00,
2013-07-08 09:07:00,76.3,70.7,30.08,WNW,302,1.0,9.0,83,0.00,,,0.00,meteohub,2013-07-08 13:07:00,
2013-07-08 09:12:00,76.6,71.1,30.08,WNW,291,4.0,6.0,83,0.00,,,0.00,meteohub,2013-07-08 13:12:00,
2013-07-08 09:17:00,76.8,70.9,30.08,West,275,1.0,6.0,82,0.00,,,0.00,meteohub,2013-07-08 13:17:00,
2013-07-08 09:22:00,77.2,70.9,30.08,WNW,288,3.0,6.0,81,0.00,,,0.00,meteohub,2013-07-08 13:22:00,
2013-07-08 09:27:00,77.5,71.2,30.08,NW,311,1.0,6.0,81,0.00,,,0.00,meteohub,2013-07-08 13:27:00,
2013-07-08 09:32:00,78.1,71.4,30.08,WNW,299,5.0,7.0,80,0.00,,,0.00,meteohub,2013-07-08 13:32:00,
2013-07-08 09:37:00,78.3,71.2,30.08,WNW,294,2.0,7.0,79,0.00,,,0.00,meteohub,2013-07-08 13:37:00,
2013-07-08 09:42:00,78.4,71.1,30.07,NW,319,0.0,7.0,78,0.00,,,0.00,meteohub,2013-07-08 13:42:00,
2013-07-08 09:47:00,78.4,71.4,30.08,NW,309,2.0,7.0,79,0.00,,,0.00,meteohub,2013-07-08 13:47:00,
2013-07-08 09:52:00,79.2,71.8,30.08,WNW,283,3.0,7.0,78,0.00,,,0.00,meteohub,2013-07-08 13:52:00,
2013-07-08 09:57:00,79.3,72.0,30.08,South,181,1.0,8.0,78,0.00,,,0.00,meteohub,2013-07-08 13:57:00,
2013-07-08 10:02:00,80.2,72.0,30.07,SSE,150,1.0,8.0,76,0.00,,,0.00,meteohub,2013-07-08 14:02:00,
2013-07-08 10:07:00,81.0,72.0,30.08,NW,304,2.0,8.0,74,0.00,,,0.00,meteohub,2013-07-08 14:07:00,
2013-07-08 10:12:00,81.0,71.4,30.08,WNW,283,2.0,5.0,73,0.00,,,0.00,meteohub,2013-07-08 14:12:00,
2013-07-08 10:17:00,80.4,71.4,30.08,NW,305,1.0,7.0,74,0.00,,,0.00,meteohub,2013-07-08 14:17:00,
2013-07-08 10:22:00,81.0,72.3,30.08,West,270,1.0,7.0,75,0.00,,,0.00,meteohub,2013-07-08 14:22:00,
2013-07-08 10:27:00,81.7,72.5,30.08,WNW,298,3.0,7.0,74,0.00,,,0.00,meteohub,2013-07-08 14:27:00,
2013-07-08 10:32:00,81.7,72.1,30.08,NNW,337,2.0,6.0,73,0.00,,,0.00,meteohub,2013-07-08 14:32:00,
2013-07-08 10:37:00,81.3,71.8,30.07,NNW,340,1.0,6.0,73,0.00,,,0.00,meteohub,2013-07-08 14:37:00,
2013-07-08 10:42:00,81.7,71.8,30.08,NW,308,4.0,6.0,72,0.00,,,0.00,meteohub,2013-07-08 14:42:00,
2013-07-08 10:47:00,82.0,72.1,30.07,NW,316,2.0,6.0,72,0.00,,,0.00,meteohub,2013-07-08 14:47:00,
2013-07-08 10:52:00,82.2,72.0,30.07,WSW,240,1.0,7.0,71,0.00,,,0.00,meteohub,2013-07-08 14:52:00,
2013-07-08 10:57:00,82.6,72.1,30.08,NNW,330,1.0,7.0,71,0.00,,,0.00,meteohub,2013-07-08 14:57:00,
2013-07-08 11:02:00,82.9,72.5,30.08,NW,304,6.0,7.0,71,0.00,,,0.00,meteohub,2013-07-08 15:02:00,
2013-07-08 11:07:00,83.3,72.5,30.08,West,281,0.0,7.0,70,0.00,,,0.00,meteohub,2013-07-08 15:07:00,
2013-07-08 11:12:00,83.7,71.6,30.08,WNW,291,2.0,7.0,67,0.00,,,0.00,meteohub,2013-07-08 15:12:00,
2013-07-08 11:17:00,83.5,71.8,30.08,West,269,1.0,10.0,68,0.00,,,0.00,meteohub,2013-07-08 15:17:00,
2013-07-08 11:22:00,83.7,72.0,30.08,West,278,4.0,10.0,68,0.00,,,0.00,meteohub,2013-07-08 15:22:00,
2013-07-08 11:27:00,83.5,71.8,30.08,WNW,302,9.0,10.0,68,0.00,,,0.00,meteohub,2013-07-08 15:27:00,
2013-07-08 11:32:00,83.5,71.4,30.08,SSW,193,2.0,9.0,67,0.00,,,0.00,meteohub,2013-07-08 15:32:00,
2013-07-08 11:37:00,84.0,72.3,30.08,WNW,283,5.0,10.0,68,0.00,,,0.00,meteohub,2013-07-08 15:37:00,
2013-07-08 11:42:00,83.8,70.9,30.08,West,276,0.0,10.0,65,0.00,,,0.00,meteohub,2013-07-08 15:42:00,
2013-07-08 11:47:00,83.8,70.9,30.08,West,263,5.0,10.0,65,0.00,,,0.00,meteohub,2013-07-08 15:47:00,
2013-07-08 11:52:00,83.7,70.7,30.08,NW,309,3.0,8.0,65,0.00,,,0.00,meteohub,2013-07-08 15:52:00,
2013-07-08 11:57:00,84.0,70.5,30.08,West,278,4.0,8.0,64,0.00,,,0.00,meteohub,2013-07-08 15:57:00,
2013-07-08 12:02:00,84.0,71.1,30.08,WNW,290,7.0,8.0,65,0.00,,,0.00,meteohub,2013-07-08 16:02:00,
2013-07-08 12:07:00,84.6,70.5,30.08,West,272,3.0,8.0,63,0.00,,,0.00,meteohub,2013-07-08 16:07:00,
2013-07-08 12:12:00,85.1,71.1,30.07,NNW,341,2.0,8.0,63,0.00,,,0.00,meteohub,2013-07-08 16:12:00,
2013-07-08 12:17:00,84.9,70.5,30.07,NNW,334,2.0,10.0,62,0.00,,,0.00,meteohub,2013-07-08 16:17:00,
2013-07-08 12:22:00,84.9,71.4,30.07,WNW,290,2.0,10.0,64,0.00,,,0.00,meteohub,2013-07-08 16:22:00,
2013-07-08 12:27:00,85.6,72.1,30.07,SE,142,2.0,10.0,64,0.00,,,0.00,meteohub,2013-07-08 16:27:00,
2013-07-08 12:32:00,86.4,71.8,30.07,WNW,290,1.0,9.0,62,0.00,,,0.00,meteohub,2013-07-08 16:32:00,
2013-07-08 12:37:00,86.7,71.6,30.07,NNW,338,5.0,12.0,61,0.00,,,0.00,meteohub,2013-07-08 16:37:00,
2013-07-08 12:42:00,85.8,70.9,30.07,WNW,291,5.0,12.0,61,0.00,,,0.00,meteohub,2013-07-08 16:42:00,
2013-07-08 12:47:00,85.5,70.5,30.07,NW,312,2.0,12.0,61,0.00,,,0.00,meteohub,2013-07-08 16:47:00,
2013-07-08 12:52:00,85.6,71.6,30.07,West,270,4.0,12.0,63,0.00,,,0.00,meteohub,2013-07-08 16:52:00,
2013-07-08 12:58:00,86.0,71.4,30.07,WNW,302,3.0,10.0,62,0.00,,,0.00,meteohub,2013-07-08 16:58:00,
2013-07-08 13:03:00,85.6,71.6,30.07,NNW,342,4.0,10.0,63,0.00,,,0.00,meteohub,2013-07-08 17:03:00,
2013-07-08 13:08:00,85.6,71.6,30.07,NW,325,4.0,10.0,63,0.00,,,0.00,meteohub,2013-07-08 17:08:00,
2013-07-08 13:13:00,85.5,71.4,30.07,West,277,3.0,10.0,63,0.00,,,0.00,meteohub,2013-07-08 17:13:00,
2013-07-08 13:18:00,85.3,71.8,30.06,WNW,297,3.0,10.0,64,0.00,,,0.00,meteohub,2013-07-08 17:18:00,
2013-07-08 13:23:00,85.6,71.6,30.06,NNE,29,2.0,9.0,63,0.00,,,0.00,meteohub,2013-07-08 17:23:00,
2013-07-08 13:28:00,86.2,71.1,30.06,WNW,294,2.0,8.0,61,0.00,,,0.00,meteohub,2013-07-08 17:28:00,
2013-07-08 13:34:00,86.5,71.1,30.06,West,263,2.0,8.0,60,0.00,,,0.00,meteohub,2013-07-08 17:34:00,
2013-07-08 13:39:00,87.8,71.6,30.06,South,190,2.0,10.0,59,0.00,,,0.00,meteohub,2013-07-08 17:39:00,
2013-07-08 13:44:00,87.6,70.0,30.06,NW,320,3.0,10.0,56,0.00,,,0.00,meteohub,2013-07-08 17:44:00,
2013-07-08 13:49:00,87.1,70.5,30.06,NNW,334,4.0,10.0,58,0.00,,,0.00,meteohub,2013-07-08 17:49:00,
2013-07-08 13:54:00,87.6,71.6,30.06,West,281,2.0,10.0,59,0.00,,,0.00,meteohub,2013-07-08 17:54:00,
2013-07-08 13:59:00,87.8,71.6,30.06,WNW,292,6.0,10.0,59,0.00,,,0.00,meteohub,2013-07-08 17:59:00,
2013-07-08 14:05:00,87.6,70.0,30.05,WNW,288,7.0,8.0,56,0.00,,,0.00,meteohub,2013-07-08 18:05:00,
2013-07-08 14:12:00,87.4,69.3,30.05,WNW,287,1.0,11.0,55,0.00,,,0.00,meteohub,2013-07-08 18:12:00,
2013-07-08 14:17:00,87.6,70.0,30.05,NNW,338,3.0,11.0,56,0.00,,,0.00,meteohub,2013-07-08 18:17:00,
2013-07-08 14:23:00,88.2,70.0,30.05,West,277,6.0,9.0,55,0.00,,,0.00,meteohub,2013-07-08 18:23:00,
2013-07-08 14:28:00,87.4,70.9,30.04,NW,312,3.0,10.0,58,0.00,,,0.00,meteohub,2013-07-08 18:28:00,
2013-07-08 14:33:00,87.4,70.9,30.04,NNW,341,3.0,10.0,58,0.00,,,0.00,meteohub,2013-07-08 18:33:00,
2013-07-08 14:39:00,88.0,71.4,30.04,WNW,302,4.0,10.0,58,0.00,,,0.00,meteohub,2013-07-08 18:39:00,
2013-07-08 14:44:00,88.0,71.4,30.04,NW,307,3.0,9.0,58,0.00,,,0.00,meteohub,2013-07-08 18:44:00,
2013-07-08 14:50:00,88.3,70.7,30.04,WSW,249,1.0,8.0,56,0.00,,,0.00,meteohub,2013-07-08 18:50:00,
2013-07-08 14:55:00,88.9,70.7,30.04,WNW,302,5.0,10.0,55,0.00,,,0.00,meteohub,2013-07-08 18:55:00,
2013-07-08 15:01:00,88.5,70.3,30.04,NW,315,2.0,10.0,55,0.00,,,0.00,meteohub,2013-07-08 19:01:00,
2013-07-08 15:06:00,88.0,69.8,30.04,NW,311,4.0,9.0,55,0.00,,,0.00,meteohub,2013-07-08 19:06:00,
2013-07-08 15:11:00,88.0,70.3,30.04,WNW,285,7.0,9.0,56,0.00,,,0.00,meteohub,2013-07-08 19:11:00,
2013-07-08 15:16:00,88.3,70.2,30.04,WNW,298,5.0,9.0,55,0.00,,,0.00,meteohub,2013-07-08 19:16:00,
2013-07-08 15:22:00,88.5,70.3,30.04,WNW,290,4.0,9.0,55,0.00,,,0.00,meteohub,2013-07-08 19:22:00,
2013-07-08 15:27:00,88.2,70.5,30.04,WNW,288,5.0,9.0,56,0.00,,,0.00,meteohub,2013-07-08 19:27:00,
2013-07-08 15:32:00,88.2,70.5,30.04,WNW,288,4.0,9.0,56,0.00,,,0.00,meteohub,2013-07-08 19:32:00,
2013-07-08 15:37:00,87.6,70.0,30.03,WNW,301,4.0,9.0,56,0.00,,,0.00,meteohub,2013-07-08 19:37:00,
2013-07-08 15:42:00,87.3,69.6,30.03,WNW,285,1.0,8.0,56,0.00,,,0.00,meteohub,2013-07-08 19:42:00,
2013-07-08 15:48:00,88.0,70.9,30.03,NW,319,0.0,8.0,57,0.00,,,0.00,meteohub,2013-07-08 19:48:00,
2013-07-08 15:53:00,88.7,71.1,30.03,NNW,328,3.0,8.0,56,0.00,,,0.00,meteohub,2013-07-08 19:53:00,
2013-07-08 15:58:00,88.9,71.1,30.02,South,190,1.0,8.0,56,0.00,,,0.00,meteohub,2013-07-08 19:58:00,
2013-07-08 16:03:00,89.8,71.4,30.02,WNW,298,5.0,7.0,55,0.00,,,0.00,meteohub,2013-07-08 20:03:00,
2013-07-08 16:08:00,89.4,70.5,30.03,NW,325,2.0,7.0,54,0.00,,,0.00,meteohub,2013-07-08 20:08:00,
2013-07-08 16:14:00,88.9,70.2,30.02,West,270,1.0,8.0,54,0.00,,,0.00,meteohub,2013-07-08 20:14:00,
2013-07-08 16:20:00,88.9,70.2,30.02,WNW,300,2.0,8.0,54,0.00,,,0.00,meteohub,2013-07-08 20:20:00,
2013-07-08 16:25:00,89.2,69.3,30.02,WNW,288,4.0,8.0,52,0.00,,,0.00,meteohub,2013-07-08 20:25:00,
2013-07-08 16:32:00,88.3,70.2,30.02,NNW,328,2.0,8.0,55,0.00,,,0.00,meteohub,2013-07-08 20:32:00,
2013-07-08 16:37:00,88.3,69.6,30.02,West,277,2.0,9.0,54,0.00,,,0.00,meteohub,2013-07-08 20:37:00,
2013-07-08 16:42:00,88.0,70.3,30.03,NW,308,3.0,10.0,56,0.00,,,0.00,meteohub,2013-07-08 20:42:00,
2013-07-08 16:47:00,87.6,70.0,30.03,SE,138,0.0,10.0,56,0.00,,,0.00,meteohub,2013-07-08 20:47:00,
2013-07-08 16:52:00,88.0,70.3,30.02,SW,218,1.0,10.0,56,0.00,,,0.00,meteohub,2013-07-08 20:52:00,
2013-07-08 16:58:00,88.2,70.5,30.02,WNW,295,1.0,7.0,56,0.00,,,0.00,meteohub,2013-07-08 20:58:00,
2013-07-08 17:03:00,88.7,70.5,30.02,WNW,297,5.0,6.0,55,0.00,,,0.00,meteohub,2013-07-08 21:03:00,
2013-07-08 17:08:00,88.3,69.1,30.02,WNW,291,5.0,10.0,53,0.00,,,0.00,meteohub,2013-07-08 21:08:00,
2013-07-08 17:14:00,87.4,69.3,30.02,NW,307,4.0,10.0,55,0.00,,,0.00,meteohub,2013-07-08 21:14:00,
2013-07-08 17:19:00,87.6,69.4,30.02,SW,225,1.0,10.0,55,0.00,,,0.00,meteohub,2013-07-08 21:19:00,
2013-07-08 17:24:00,87.8,69.1,30.01,NNW,333,2.0,9.0,54,0.00,,,0.00,meteohub,2013-07-08 21:24:00,
2013-07-08 17:29:00,88.2,70.0,30.02,NW,312,2.0,9.0,55,0.00,,,0.00,meteohub,2013-07-08 21:29:00,
2013-07-08 17:34:00,88.2,69.4,30.02,WNW,298,7.0,9.0,54,0.00,,,0.00,meteohub,2013-07-08 21:34:00,
2013-07-08 17:40:00,88.3,69.6,30.01,West,263,2.0,9.0,54,0.00,,,0.00,meteohub,2013-07-08 21:40:00,
2013-07-08 17:45:00,88.5,69.8,30.01,NW,304,1.0,9.0,54,0.00,,,0.00,meteohub,2013-07-08 21:45:00,
2013-07-08 17:50:00,88.3,69.6,30.01,West,274,4.0,9.0,54,0.00,,,0.00,meteohub,2013-07-08 21:50:00,
2013-07-08 17:56:00,88.0,70.3,30.01,NW,314,1.0,10.0,56,0.00,,,0.00,meteohub,2013-07-08 21:56:00,
2013-07-08 18:01:00,87.8,72.1,30.02,South,186,0.0,10.0,60,0.00,,,0.00,meteohub,2013-07-08 22:01:00,
2013-07-08 18:06:00,87.3,72.7,30.02,SSW,205,1.0,10.0,62,0.00,,,0.00,meteohub,2013-07-08 22:06:00,
2013-07-08 18:11:00,86.4,72.3,30.02,SSE,167,4.0,9.0,63,0.00,,,0.00,meteohub,2013-07-08 22:11:00,
2013-07-08 18:17:00,85.8,72.7,30.02,South,186,1.0,9.0,65,0.00,,,0.00,meteohub,2013-07-08 22:17:00,
2013-07-08 18:22:00,85.8,73.2,30.02,SW,222,0.0,7.0,66,0.00,,,0.00,meteohub,2013-07-08 22:22:00,
2013-07-08 18:27:00,85.8,72.1,30.01,NW,319,4.0,7.0,64,0.00,,,0.00,meteohub,2013-07-08 22:27:00,
2013-07-08 18:32:00,85.6,72.5,30.01,SW,224,0.0,7.0,65,0.00,,,0.00,meteohub,2013-07-08 22:32:00,
2013-07-08 18:37:00,86.2,72.5,30.02,SSW,212,0.0,7.0,64,0.00,,,0.00,meteohub,2013-07-08 22:37:00,
2013-07-08 18:43:00,86.5,72.9,30.02,WNW,288,1.0,7.0,64,0.00,,,0.00,meteohub,2013-07-08 22:43:00,
2013-07-08 18:48:00,86.7,72.7,30.03,SW,221,2.0,7.0,63,0.00,,,0.00,meteohub,2013-07-08 22:48:00,
2013-07-08 18:53:00,86.4,71.2,30.03,NNW,330,1.0,7.0,61,0.00,,,0.00,meteohub,2013-07-08 22:53:00,
2013-07-08 18:58:00,85.8,71.8,30.03,NW,315,0.0,10.0,63,0.00,,,0.00,meteohub,2013-07-08 22:58:00,
2013-07-08 19:03:00,85.6,71.6,30.03,SW,235,3.0,10.0,63,0.00,,,0.00,meteohub,2013-07-08 23:03:00,
2013-07-08 19:09:00,85.6,72.1,30.04,NW,319,4.0,10.0,64,0.00,,,0.00,meteohub,2013-07-08 23:09:00,
2013-07-08 19:14:00,85.6,72.1,30.04,SE,132,0.0,8.0,64,0.00,,,0.00,meteohub,2013-07-08 23:14:00,
2013-07-08 19:19:00,85.5,72.0,30.04,WNW,287,1.0,8.0,64,0.00,,,0.00,meteohub,2013-07-08 23:19:00,
2013-07-08 19:25:00,85.3,72.1,30.04,WNW,293,1.0,8.0,65,0.00,,,0.00,meteohub,2013-07-08 23:25:00,
2013-07-08 19:30:00,84.9,72.3,30.04,SSW,207,1.0,8.0,66,0.00,,,0.00,meteohub,2013-07-08 23:30:00,
2013-07-08 19:36:00,84.9,72.7,30.04,SSW,195,0.0,8.0,67,0.00,,,0.00,meteohub,2013-07-08 23:36:00,
2013-07-08 19:42:00,84.7,72.5,30.04,WNW,302,7.0,9.0,67,0.00,,,0.00,meteohub,2013-07-08 23:42:00,
2013-07-08 19:47:00,84.0,72.7,30.05,NNW,332,2.0,9.0,69,0.00,,,0.00,meteohub,2013-07-08 23:47:00,
2013-07-08 19:52:00,83.5,72.7,30.05,West,267,1.0,9.0,70,0.00,,,0.00,meteohub,2013-07-08 23:52:00,
2013-07-08 19:57:00,83.3,72.1,30.05,WNW,293,4.0,8.0,69,0.00,,,0.00,meteohub,2013-07-08 23:57:00,
2013-07-08 20:02:00,82.9,71.2,30.06,NW,314,3.0,9.0,68,0.00,,,0.00,meteohub,2013-07-09 00:02:00,
2013-07-08 20:08:00,82.6,71.4,30.06,NW,314,4.0,12.0,69,0.00,,,0.00,meteohub,2013-07-09 00:08:00,
2013-07-08 20:13:00,82.2,71.1,30.06,NW,304,2.0,12.0,69,0.00,,,0.00,meteohub,2013-07-09 00:13:00,
2013-07-08 20:18:00,82.0,70.9,30.06,WNW,289,3.0,12.0,69,0.00,,,0.00,meteohub,2013-07-09 00:18:00,
2013-07-08 20:23:00,81.7,70.5,30.05,WNW,291,5.0,6.0,69,0.00,,,0.00,meteohub,2013-07-09 00:23:00,
2013-07-08 20:28:00,81.5,70.3,30.05,NW,304,0.0,7.0,69,0.00,,,0.00,meteohub,2013-07-09 00:28:00,
2013-07-08 20:33:00,81.3,69.8,30.06,WNW,291,1.0,7.0,68,0.00,,,0.00,meteohub,2013-07-09 00:33:00,
2013-07-08 20:38:00,81.1,69.6,30.06,SSE,153,1.0,7.0,68,0.00,,,0.00,meteohub,2013-07-09 00:38:00,
2013-07-08 20:44:00,81.0,68.9,30.06,West,264,2.0,4.0,67,0.00,,,0.00,meteohub,2013-07-09 00:44:00,
2013-07-08 20:49:00,80.6,68.2,30.06,WNW,295,1.0,4.0,66,0.00,,,0.00,meteohub,2013-07-09 00:49:00,
2013-07-08 20:54:00,80.4,68.5,30.06,West,277,0.0,6.0,67,0.00,,,0.00,meteohub,2013-07-09 00:54:00,
2013-07-08 20:59:00,80.2,67.5,30.07,West,277,3.0,6.0,65,0.00,,,0.00,meteohub,2013-07-09 00:59:00,
2013-07-08 21:04:00,80.1,66.7,30.07,West,278,2.0,6.0,64,0.00,,,0.00,meteohub,2013-07-09 01:04:00,
2013-07-08 21:11:00,79.9,66.6,30.08,WNW,293,0.0,6.0,64,0.00,,,0.00,meteohub,2013-07-09 01:11:00,
2013-07-08 21:16:00,79.9,66.6,30.08,WSW,250,0.0,6.0,64,0.00,,,0.00,meteohub,2013-07-09 01:16:00,
2013-07-08 21:21:00,79.5,66.7,30.09,SSW,193,0.0,4.0,65,0.00,,,0.00,meteohub,2013-07-09 01:21:00,
2013-07-08 21:26:00,79.5,66.7,30.09,WNW,292,4.0,5.0,65,0.00,,,0.00,meteohub,2013-07-09 01:26:00,
2013-07-08 21:31:00,79.3,66.6,30.09,SSW,208,0.0,6.0,65,0.00,,,0.00,meteohub,2013-07-09 01:31:00,
2013-07-08 21:36:00,79.3,66.6,30.09,WNW,293,0.0,8.0,65,0.00,,,0.00,meteohub,2013-07-09 01:36:00,
2013-07-08 21:41:00,79.2,66.4,30.09,West,279,1.0,8.0,65,0.00,,,0.00,meteohub,2013-07-09 01:41:00,
2013-07-08 21:47:00,79.2,66.7,30.10,WNW,302,2.0,8.0,66,0.00,,,0.00,meteohub,2013-07-09 01:47:00,
2013-07-08 21:52:00,79.0,66.6,30.10,WNW,295,3.0,5.0,66,0.00,,,0.00,meteohub,2013-07-09 01:52:00,
2013-07-08 21:57:00,78.6,66.4,30.10,WNW,300,3.0,5.0,66,0.00,,,0.00,meteohub,2013-07-09 01:57:00,
2013-07-08 22:02:00,78.6,66.7,30.10,NW,308,2.0,5.0,67,0.00,,,0.00,meteohub,2013-07-09 02:02:00,
2013-07-08 22:07:00,78.4,66.6,30.10,WNW,297,3.0,6.0,67,0.00,,,0.00,meteohub,2013-07-09 02:07:00,
2013-07-08 22:12:00,78.3,66.7,30.10,WNW,298,0.0,7.0,68,0.00,,,0.00,meteohub,2013-07-09 02:12:00,
2013-07-08 22:18:00,78.1,67.1,30.10,WNW,300,2.0,7.0,69,0.00,,,0.00,meteohub,2013-07-09 02:18:00,
2013-07-08 22:23:00,77.9,66.9,30.10,SSW,194,0.0,7.0,69,0.00,,,0.00,meteohub,2013-07-09 02:23:00,
2013-07-08 22:29:00,77.7,67.1,30.10,WNW,300,2.0,6.0,70,0.00,,,0.00,meteohub,2013-07-09 02:29:00,
2013-07-08 22:34:00,77.5,66.9,30.09,West,267,2.0,7.0,70,0.00,,,0.00,meteohub,2013-07-09 02:34:00,
2013-07-08 22:40:00,77.5,67.5,30.09,West,260,0.0,7.0,71,0.00,,,0.00,meteohub,2013-07-09 02:40:00,
2013-07-08 22:45:00,77.4,67.3,30.09,WNW,293,0.0,7.0,71,0.00,,,0.00,meteohub,2013-07-09 02:45:00,
2013-07-08 22:50:00,77.2,67.5,30.09,WNW,294,2.0,3.0,72,0.00,,,0.00,meteohub,2013-07-09 02:50:00,
2013-07-08 22:55:00,77.2,67.5,30.09,WNW,291,2.0,4.0,72,0.00,,,0.00,meteohub,2013-07-09 02:55:00,
2013-07-08 23:00:00,77.0,67.6,30.09,WNW,287,4.0,4.0,73,0.00,,,0.00,meteohub,2013-07-09 03:00:00,
2013-07-08 23:05:00,76.8,67.5,30.09,WNW,290,2.0,8.0,73,0.00,,,0.00,meteohub,2013-07-09 03:05:00,
2013-07-08 23:11:00,76.8,67.8,30.09,SSE,157,0.0,8.0,74,0.00,,,0.00,meteohub,2013-07-09 03:11:00,
2013-07-08 23:16:00,76.6,67.6,30.10,WNW,300,0.0,6.0,74,0.00,,,0.00,meteohub,2013-07-09 03:16:00,
2013-07-08 23:21:00,76.6,67.6,30.10,SSW,210,0.0,4.0,74,0.00,,,0.00,meteohub,2013-07-09 03:21:00,
2013-07-08 23:27:00,76.5,68.0,30.10,WNW,298,2.0,4.0,75,0.00,,,0.00,meteohub,2013-07-09 03:27:00,
2013-07-08 23:32:00,76.5,68.0,30.10,NW,309,0.0,2.0,75,0.00,,,0.00,meteohub,2013-07-09 03:32:00,
2013-07-08 23:37:00,76.5,68.4,30.10,WNW,300,1.0,2.0,76,0.00,,,0.00,meteohub,2013-07-09 03:37:00,
2013-07-08 23:43:00,76.5,68.4,30.10,WNW,285,2.0,2.0,76,0.00,,,0.00,meteohub,2013-07-09 03:43:00,
2013-07-08 23:48:00,76.5,68.4,30.09,West,281,2.0,6.0,76,0.00,,,0.00,meteohub,2013-07-09 03:48:00,
2013-07-08 23:53:00,76.3,68.5,30.09,WNW,295,3.0,6.0,77,0.00,,,0.00,meteohub,2013-07-09 03:53:00,
2013-07-08 23:55:00,76.3,68.5,30.09,WNW,288,3.0,6.0,77,0.00,,,0.00,meteohub,2013-07-09 03:55:00,